Weather History for KIMT - March, 2014

Change the Weather History Date:

Friday, March 28, 2014

  Actual Average Record
Temperature  
Mean Temperature 31 °F -  
Max Temperature 36 °F - - ()
Min Temperature 26 °F - - ()
Degree Days  
Heating Degree Days 34    
Moisture  
Dew Point 22 °F    
Average Humidity 72    
Maximum Humidity 89    
Minimum Humidity 50    
Precipitation  
Precipitation 0.00 in - - ()
Sea Level Pressure  
Sea Level Pressure 29.93 in    
Wind  
Wind Speed 12 mph (NNW)    
Max Wind Speed 20 mph    
Max Gust Speed 26 mph    
Visibility 10 miles    
Events Snow    
T = Trace of Precipitation, MM = Missing Value Source: NWS Daily Summary

Daily Weather History Graph

Daily Weather History Graph

Search for Another Location

Airport or City:

Trip Planner

Search our weather history database for the weather conditions in past years. The results will help you decide how hot, cold, wet, or windy it might be!

Date:

Astronomy

Mar. 28, 2014 Rise Set
Actual Time 6:40 AM CDT 7:15 PM CDT
Civil Twilight 6:10 AM CDT 7:45 PM CDT
Nautical Twilight 5:34 AM CDT 8:21 PM CDT
Astronomical Twilight 4:57 AM CDT 8:58 PM CDT
Moon 5:17 AM CDT (3/28) 5:06 PM CDT (3/28)
Length of Visible Light 13h 35m
Length of Day
12h 35m
Waning Crescent, 6% of the Moon is Illuminated
Mar 28
Waning Crescent
Mar 30
New
Apr 7
First Quarter
Apr 15
Full
Apr 22
Last Quarter

Hourly Weather History & Observations

Time (CDT) Temp. Windchill Dew Point Humidity Pressure Visibility Wind Dir Wind Speed Gust Speed Precip Events Conditions
12:26 AM 33.8 °F 27.0 °F 30.2 °F 87% 29.51 in 6.0 mi North 8.1 mph - 0.00 in Snow Light Snow
12:54 AM 33.1 °F 24.9 °F 30.0 °F 89% 29.56 in 8.0 mi NNW 10.4 mph 19.6 mph 0.00 in   Overcast
1:54 AM 30.9 °F 20.7 °F 28.0 °F 89% 29.57 in 10.0 mi NNW 13.8 mph - N/A   Overcast
2:54 AM 30.0 °F 19.5 °F 26.1 °F 85% 29.60 in 10.0 mi NNW 13.8 mph - N/A   Overcast
3:54 AM 28.9 °F 18.2 °F 26.1 °F 89% 29.63 in 10.0 mi NNW 13.8 mph - N/A   Overcast
4:54 AM 28.9 °F 16.9 °F 25.0 °F 85% 29.67 in 10.0 mi NNW 17.3 mph 24.2 mph N/A   Overcast
5:54 AM 28.0 °F 14.9 °F 24.1 °F 85% 29.73 in 10.0 mi NNW 19.6 mph 26.5 mph N/A   Overcast
6:54 AM 27.0 °F 14.7 °F 23.0 °F 85% 29.78 in 10.0 mi NNW 16.1 mph 23.0 mph N/A   Overcast
7:54 AM 27.0 °F 16.1 °F 21.9 °F 81% 29.85 in 10.0 mi NNW 12.7 mph - N/A   Overcast
8:20 AM 26.6 °F 14.7 °F 21.2 °F 80% 29.81 in 10.0 mi NNW 15.0 mph - N/A   Overcast
8:54 AM 27.0 °F 14.7 °F 21.0 °F 78% 29.88 in 10.0 mi NNW 16.1 mph - N/A   Overcast
9:54 AM 27.0 °F 13.9 °F 19.9 °F 75% 29.93 in 10.0 mi NNW 18.4 mph - N/A   Overcast
10:11 AM 28.4 °F 18.5 °F 21.2 °F 74% 29.89 in 10.0 mi NNW 11.5 mph - N/A   Scattered Clouds
10:22 AM 28.4 °F 16.2 °F 21.2 °F 74% 29.90 in 10.0 mi NW 17.3 mph - N/A   Mostly Cloudy
10:40 AM 28.4 °F 16.2 °F 21.2 °F 74% 29.91 in 10.0 mi NNW 17.3 mph - N/A   Scattered Clouds
10:54 AM 30.0 °F 19.5 °F 21.0 °F 69% 29.96 in 10.0 mi NNW 13.8 mph - N/A   Partly Cloudy
11:09 AM 28.4 °F 15.8 °F 21.2 °F 74% 29.92 in 10.0 mi NNW 18.4 mph 23.0 mph N/A   Mostly Cloudy
11:44 AM 30.2 °F 19.8 °F 21.2 °F 69% 29.94 in 10.0 mi NNW 13.8 mph - N/A   Scattered Clouds
11:51 AM 30.2 °F 21.9 °F 21.2 °F 69% 29.94 in 10.0 mi NNW 9.2 mph - N/A   Mostly Cloudy
11:54 AM 32.0 °F 22.5 °F 21.9 °F 66% 29.99 in 10.0 mi NNW 12.7 mph - N/A   Scattered Clouds
12:28 PM 32.0 °F 21.2 °F 21.2 °F 64% 29.96 in 10.0 mi North 16.1 mph - N/A   Mostly Cloudy
12:54 PM 33.1 °F 23.9 °F 21.0 °F 61% 30.02 in 10.0 mi NNW 12.7 mph 20.7 mph N/A   Mostly Cloudy
1:17 PM 33.8 °F 25.8 °F 21.2 °F 60% 29.98 in 10.0 mi NNW 10.4 mph - N/A   Scattered Clouds
1:54 PM 34.0 °F 26.0 °F 19.9 °F 56% 30.04 in 10.0 mi NNW 10.4 mph 18.4 mph N/A   Scattered Clouds
2:54 PM 35.1 °F 26.4 °F 19.9 °F 54% 30.06 in 10.0 mi NW 12.7 mph - N/A   Partly Cloudy
3:54 PM 36.0 °F 28.0 °F 19.0 °F 50% 30.11 in 10.0 mi NNW 11.5 mph - N/A   Mostly Cloudy
4:54 PM 35.1 °F 32.2 °F 19.9 °F 54% 30.11 in 10.0 mi NNW 3.5 mph - N/A   Clear
5:54 PM 34.0 °F 26.6 °F 19.9 °F 56% 30.16 in 10.0 mi NNW 9.2 mph - N/A   Mostly Cloudy
6:54 PM 34.0 °F 29.8 °F 19.0 °F 54% 30.18 in 10.0 mi NNW 4.6 mph - N/A   Clear
7:54 PM 28.0 °F - 19.0 °F 69% 30.21 in 10.0 mi Calm Calm - N/A   Clear
8:54 PM 27.0 °F - 21.0 °F 78% 30.22 in 10.0 mi Calm Calm - N/A   Clear
9:54 PM 28.0 °F 21.7 °F 19.0 °F 69% 30.24 in 10.0 mi ESE 5.8 mph - N/A   Scattered Clouds
10:54 PM 28.0 °F 22.8 °F 19.0 °F 69% 30.26 in 10.0 mi ESE 4.6 mph - N/A   Overcast
11:54 PM 28.0 °F 24.2 °F 18.0 °F 66% 30.26 in 10.0 mi East 3.5 mph - N/A   Overcast